Time,TemperatureF,DewpointF,PressureIn,WindDirection,WindDirectionDegrees,WindSpeedMPH,WindSpeedGustMPH,Humidity,HourlyPrecipIn,Conditions,Clouds,dailyrainin,SolarRadiationWatts/m^2,SoftwareType,DateUTC
2013-01-15 00:00:00,14.0,7.0,-100.00,WNW,292,8.0,-999.0,72,-99.99,,,-99.99,0.000000,,2013-01-15 06:00:00,
2013-01-15 00:43:00,14.0,7.0,-100.00,WNW,292,8.0,-999.0,72,-99.99,,,-99.99,0.000000,,2013-01-15 06:43:00,
2013-01-15 00:53:00,14.0,7.0,-100.00,WNW,292,8.0,-999.0,72,-99.99,,,-99.99,0.000000,,2013-01-15 06:53:00,
2013-01-15 03:00:00,12.0,5.0,-100.00,WNW,292,3.0,-999.0,71,-99.99,,,-99.99,0.000000,,2013-01-15 09:00:00,
2013-01-15 03:43:00,12.0,5.0,-100.00,WNW,292,3.0,-999.0,71,-99.99,,,-99.99,0.000000,,2013-01-15 09:43:00,
2013-01-15 03:52:00,12.0,5.0,-100.00,WNW,292,3.0,-999.0,71,-99.99,,,-99.99,0.000000,,2013-01-15 09:52:00,
2013-01-15 06:00:00,9.0,5.0,-100.00,SSW,202,1.0,-999.0,81,-99.99,,,-99.99,0.000000,,2013-01-15 12:00:00,
2013-01-15 06:43:00,9.0,5.0,-100.00,SSW,202,1.0,-999.0,81,-99.99,,,-99.99,0.000000,,2013-01-15 12:43:00,
2013-01-15 06:53:00,9.0,5.0,-100.00,SSW,202,1.0,-999.0,81,-99.99,,,-99.99,0.000000,,2013-01-15 12:53:00,
2013-01-15 09:00:00,13.0,8.0,-100.00,South,180,4.0,-999.0,83,-99.99,,,-99.99,91.639999,,2013-01-15 15:00:00,
2013-01-15 09:33:00,13.0,8.0,-100.00,South,180,4.0,-999.0,83,-99.99,,,-99.99,91.639999,,2013-01-15 15:33:00,
2013-01-15 09:43:00,13.0,8.0,-100.00,South,180,4.0,-999.0,83,-99.99,,,-99.99,91.639999,,2013-01-15 15:43:00,
2013-01-15 09:53:00,13.0,8.0,-100.00,South,180,4.0,-999.0,83,-99.99,,,-99.99,91.639999,,2013-01-15 15:53:00,
2013-01-15 12:00:00,28.0,13.0,-100.00,SW,225,8.0,-999.0,53,-99.99,,,-99.99,395.559998,,2013-01-15 18:00:00,
2013-01-15 12:43:00,28.0,13.0,-100.00,SW,225,8.0,-999.0,53,-99.99,,,-99.99,395.559998,,2013-01-15 18:43:00,
2013-01-15 12:53:00,28.0,13.0,-100.00,SW,225,8.0,-999.0,53,-99.99,,,-99.99,395.559998,,2013-01-15 18:53:00,
2013-01-15 15:00:00,29.0,11.0,-100.00,SSW,202,8.0,-999.0,46,-99.99,,,-99.99,242.440002,,2013-01-15 21:00:00,
2013-01-15 15:43:00,29.0,11.0,-100.00,SSW,202,8.0,-999.0,46,-99.99,,,-99.99,242.440002,,2013-01-15 21:43:00,
2013-01-15 15:53:00,29.0,11.0,-100.00,SSW,202,8.0,-999.0,46,-99.99,,,-99.99,242.440002,,2013-01-15 21:53:00,
2013-01-15 18:00:00,25.0,13.0,-100.00,SSW,202,6.0,-999.0,59,-99.99,,,-99.99,0.000000,,2013-01-16 00:00:00,
2013-01-15 18:43:00,25.0,13.0,-100.00,SSW,202,6.0,-999.0,59,-99.99,,,-99.99,0.000000,,2013-01-16 00:43:00,
2013-01-15 18:53:00,25.0,13.0,-100.00,SSW,202,6.0,-999.0,59,-99.99,,,-99.99,0.000000,,2013-01-16 00:53:00,
2013-01-15 21:00:00,23.0,13.0,-100.00,SSW,202,7.0,-999.0,66,-99.99,,,-99.99,0.000000,,2013-01-16 03:00:00,
2013-01-15 21:43:00,23.0,13.0,-100.00,SSW,202,7.0,-999.0,66,-99.99,,,-99.99,0.000000,,2013-01-16 03:43:00,
2013-01-15 21:53:00,23.0,13.0,-100.00,SSW,202,7.0,-999.0,66,-99.99,,,-99.99,0.000000,,2013-01-16 03:53:00,